<?xml version="1.0" encoding="UTF-8" standalone="no" ?>
<gpx xmlns="http://www.topografix.com/GPX/1/1" xmlns:xsi="http://www.w3.org/2001/XMLSchema-instance" xsi:schemaLocation="http://www.topografix.com/GPX/1/1 http://www.topografix.com/GPX/1/1/gpx.xsd" version="1.1" creator="VisuGPX - https://www.visugpx.com">
  <metadata>
    <name>Sentier des tourbières à Lajo</name>
  </metadata>
  <wpt lat="44.83718" lon="3.42683">
    <ele>1236</ele>
    <name><![CDATA[Mairie de Lajo]]></name>
  </wpt>
  <wpt lat="44.83701" lon="3.43351">
    <ele>1284</ele>
    <name><![CDATA[Fourche de pistes]]></name>
  </wpt>
  <wpt lat="44.84116" lon="3.43363">
    <ele>1313</ele>
    <name><![CDATA[Ponton vers la gauche, aller-retour]]></name>
  </wpt>
  <wpt lat="44.84482" lon="3.4327">
    <ele>1341</ele>
    <name><![CDATA[Parcelles 7 et 8 ]]></name>
  </wpt>
  <wpt lat="44.84616" lon="3.43301">
    <ele>1350</ele>
    <name><![CDATA[Carrefour de la boucle]]></name>
  </wpt>
  <wpt lat="44.84745" lon="3.43649">
    <ele>1389</ele>
    <name><![CDATA[Gros rocher : sentier à droite]]></name>
  </wpt>
  <wpt lat="44.83721" lon="3.42717">
    <ele>1240</ele>
    <name><![CDATA[Mairie de Lajo]]></name>
  </wpt>
  <trk>
    <name><![CDATA[Sentier des tourbières à Lajo]]></name>
    <trkseg>
      <trkpt lat="44.83718" lon="3.42683">
        <ele>1236</ele>
        <time>2022-06-15T15:06:20+02:00</time>
      </trkpt>
      <trkpt lat="44.83706" lon="3.42716">
        <ele>1238</ele>
        <time>2022-06-15T15:06:20+02:00</time>
      </trkpt>
      <trkpt lat="44.83715" lon="3.42728">
        <ele>1240</ele>
        <time>2022-06-15T15:06:20+02:00</time>
      </trkpt>
      <trkpt lat="44.8371" lon="3.4275">
        <ele>1241</ele>
        <time>2022-06-15T15:06:20+02:00</time>
      </trkpt>
      <trkpt lat="44.83696" lon="3.42776">
        <ele>1243</ele>
        <time>2022-06-15T15:06:20+02:00</time>
      </trkpt>
      <trkpt lat="44.83679" lon="3.42799">
        <ele>1244</ele>
        <time>2022-06-15T15:06:20+02:00</time>
      </trkpt>
      <trkpt lat="44.8367" lon="3.42828">
        <ele>1246</ele>
        <time>2022-06-15T15:06:20+02:00</time>
      </trkpt>
      <trkpt lat="44.83658" lon="3.42856">
        <ele>1248</ele>
        <time>2022-06-15T15:06:20+02:00</time>
      </trkpt>
      <trkpt lat="44.83649" lon="3.42885">
        <ele>1250</ele>
        <time>2022-06-15T15:06:20+02:00</time>
      </trkpt>
      <trkpt lat="44.83639" lon="3.42915">
        <ele>1252</ele>
        <time>2022-06-15T15:06:20+02:00</time>
      </trkpt>
      <trkpt lat="44.83626" lon="3.42941">
        <ele>1254</ele>
        <time>2022-06-15T15:06:20+02:00</time>
      </trkpt>
      <trkpt lat="44.83616" lon="3.42971">
        <ele>1255</ele>
        <time>2022-06-15T15:06:20+02:00</time>
      </trkpt>
      <trkpt lat="44.83605" lon="3.43">
        <ele>1257</ele>
        <time>2022-06-15T15:06:20+02:00</time>
      </trkpt>
      <trkpt lat="44.83605" lon="3.43032">
        <ele>1260</ele>
        <time>2022-06-15T15:06:20+02:00</time>
      </trkpt>
      <trkpt lat="44.83609" lon="3.43063">
        <ele>1263</ele>
        <time>2022-06-15T15:06:20+02:00</time>
      </trkpt>
      <trkpt lat="44.83614" lon="3.43095">
        <ele>1266</ele>
        <time>2022-06-15T15:06:20+02:00</time>
      </trkpt>
      <trkpt lat="44.83618" lon="3.43127">
        <ele>1270</ele>
        <time>2022-06-15T15:06:20+02:00</time>
      </trkpt>
      <trkpt lat="44.83624" lon="3.43157">
        <ele>1273</ele>
        <time>2022-06-15T15:06:20+02:00</time>
      </trkpt>
      <trkpt lat="44.83627" lon="3.43189">
        <ele>1274</ele>
        <time>2022-06-15T15:06:20+02:00</time>
      </trkpt>
      <trkpt lat="44.83638" lon="3.43218">
        <ele>1276</ele>
        <time>2022-06-15T15:06:20+02:00</time>
      </trkpt>
      <trkpt lat="44.83647" lon="3.43247">
        <ele>1278</ele>
        <time>2022-06-15T15:06:20+02:00</time>
      </trkpt>
      <trkpt lat="44.83663" lon="3.4327">
        <ele>1281</ele>
        <time>2022-06-15T15:06:20+02:00</time>
      </trkpt>
      <trkpt lat="44.83678" lon="3.43295">
        <ele>1283</ele>
        <time>2022-06-15T15:06:20+02:00</time>
      </trkpt>
      <trkpt lat="44.8369" lon="3.43321">
        <ele>1285</ele>
        <time>2022-06-15T15:06:20+02:00</time>
      </trkpt>
      <trkpt lat="44.83701" lon="3.43351">
        <ele>1284</ele>
        <time>2022-06-15T15:06:20+02:00</time>
      </trkpt>
      <trkpt lat="44.83723" lon="3.43362">
        <ele>1286</ele>
        <time>2022-06-15T15:06:20+02:00</time>
      </trkpt>
      <trkpt lat="44.83744" lon="3.43373">
        <ele>1288</ele>
        <time>2022-06-15T15:06:20+02:00</time>
      </trkpt>
      <trkpt lat="44.83767" lon="3.43376">
        <ele>1290</ele>
        <time>2022-06-15T15:06:20+02:00</time>
      </trkpt>
      <trkpt lat="44.8379" lon="3.43368">
        <ele>1293</ele>
        <time>2022-06-15T15:06:20+02:00</time>
      </trkpt>
      <trkpt lat="44.83813" lon="3.43365">
        <ele>1295</ele>
        <time>2022-06-15T15:06:20+02:00</time>
      </trkpt>
      <trkpt lat="44.83836" lon="3.43362">
        <ele>1297</ele>
        <time>2022-06-15T15:06:20+02:00</time>
      </trkpt>
      <trkpt lat="44.83859" lon="3.43356">
        <ele>1299</ele>
        <time>2022-06-15T15:06:20+02:00</time>
      </trkpt>
      <trkpt lat="44.83877" lon="3.43336">
        <ele>1300</ele>
        <time>2022-06-15T15:06:20+02:00</time>
      </trkpt>
      <trkpt lat="44.83892" lon="3.43312">
        <ele>1303</ele>
        <time>2022-06-15T15:06:20+02:00</time>
      </trkpt>
      <trkpt lat="44.83912" lon="3.43293">
        <ele>1304</ele>
        <time>2022-06-15T15:06:20+02:00</time>
      </trkpt>
      <trkpt lat="44.83935" lon="3.433">
        <ele>1305</ele>
        <time>2022-06-15T15:06:20+02:00</time>
      </trkpt>
      <trkpt lat="44.83957" lon="3.43307">
        <ele>1306</ele>
        <time>2022-06-15T15:06:20+02:00</time>
      </trkpt>
      <trkpt lat="44.8398" lon="3.43314">
        <ele>1308</ele>
        <time>2022-06-15T15:06:20+02:00</time>
      </trkpt>
      <trkpt lat="44.84003" lon="3.43319">
        <ele>1310</ele>
        <time>2022-06-15T15:06:20+02:00</time>
      </trkpt>
      <trkpt lat="44.84026" lon="3.43319">
        <ele>1311</ele>
        <time>2022-06-15T15:06:20+02:00</time>
      </trkpt>
      <trkpt lat="44.8405" lon="3.4332">
        <ele>1312</ele>
        <time>2022-06-15T15:06:20+02:00</time>
      </trkpt>
      <trkpt lat="44.84073" lon="3.43329">
        <ele>1313</ele>
        <time>2022-06-15T15:06:20+02:00</time>
      </trkpt>
      <trkpt lat="44.84091" lon="3.43347">
        <ele>1313</ele>
        <time>2022-06-15T15:06:20+02:00</time>
      </trkpt>
      <trkpt lat="44.84112" lon="3.43361">
        <ele>1313</ele>
        <time>2022-06-15T15:06:20+02:00</time>
      </trkpt>
      <trkpt lat="44.84122" lon="3.43332">
        <ele>1315</ele>
        <time>2022-06-15T15:06:20+02:00</time>
      </trkpt>
      <trkpt lat="44.84116" lon="3.43363">
        <ele>1313</ele>
        <time>2022-06-15T15:06:20+02:00</time>
      </trkpt>
      <trkpt lat="44.8414" lon="3.43363">
        <ele>1315</ele>
        <time>2022-06-15T15:06:20+02:00</time>
      </trkpt>
      <trkpt lat="44.84159" lon="3.43348">
        <ele>1317</ele>
        <time>2022-06-15T15:06:20+02:00</time>
      </trkpt>
      <trkpt lat="44.84181" lon="3.43336">
        <ele>1319</ele>
        <time>2022-06-15T15:06:20+02:00</time>
      </trkpt>
      <trkpt lat="44.842" lon="3.4333">
        <ele>1321</ele>
        <time>2022-06-15T15:06:20+02:00</time>
      </trkpt>
      <trkpt lat="44.84213" lon="3.43349">
        <ele>1321</ele>
        <time>2022-06-15T15:06:20+02:00</time>
      </trkpt>
      <trkpt lat="44.84203" lon="3.43364">
        <ele>1319</ele>
        <time>2022-06-15T15:06:20+02:00</time>
      </trkpt>
      <trkpt lat="44.84205" lon="3.43396">
        <ele>1317</ele>
        <time>2022-06-15T15:06:20+02:00</time>
      </trkpt>
      <trkpt lat="44.8419" lon="3.43421">
        <ele>1315</ele>
        <time>2022-06-15T15:06:20+02:00</time>
      </trkpt>
      <trkpt lat="44.84176" lon="3.43447">
        <ele>1313</ele>
        <time>2022-06-15T15:06:20+02:00</time>
      </trkpt>
      <trkpt lat="44.84191" lon="3.43422">
        <ele>1315</ele>
        <time>2022-06-15T15:06:20+02:00</time>
      </trkpt>
      <trkpt lat="44.84205" lon="3.43397">
        <ele>1317</ele>
        <time>2022-06-15T15:06:20+02:00</time>
      </trkpt>
      <trkpt lat="44.84204" lon="3.43365">
        <ele>1319</ele>
        <time>2022-06-15T15:06:20+02:00</time>
      </trkpt>
      <trkpt lat="44.84216" lon="3.4335">
        <ele>1321</ele>
        <time>2022-06-15T15:06:20+02:00</time>
      </trkpt>
      <trkpt lat="44.84225" lon="3.43322">
        <ele>1323</ele>
        <time>2022-06-15T15:06:20+02:00</time>
      </trkpt>
      <trkpt lat="44.84247" lon="3.43313">
        <ele>1326</ele>
        <time>2022-06-15T15:06:20+02:00</time>
      </trkpt>
      <trkpt lat="44.84268" lon="3.43324">
        <ele>1327</ele>
        <time>2022-06-15T15:06:20+02:00</time>
      </trkpt>
      <trkpt lat="44.84284" lon="3.43347">
        <ele>1328</ele>
        <time>2022-06-15T15:06:20+02:00</time>
      </trkpt>
      <trkpt lat="44.84307" lon="3.43352">
        <ele>1330</ele>
        <time>2022-06-15T15:06:20+02:00</time>
      </trkpt>
      <trkpt lat="44.84327" lon="3.43337">
        <ele>1332</ele>
        <time>2022-06-15T15:06:20+02:00</time>
      </trkpt>
      <trkpt lat="44.8435" lon="3.4333">
        <ele>1335</ele>
        <time>2022-06-15T15:06:20+02:00</time>
      </trkpt>
      <trkpt lat="44.84372" lon="3.43322">
        <ele>1337</ele>
        <time>2022-06-15T15:06:20+02:00</time>
      </trkpt>
      <trkpt lat="44.84394" lon="3.4331">
        <ele>1339</ele>
        <time>2022-06-15T15:06:20+02:00</time>
      </trkpt>
      <trkpt lat="44.84417" lon="3.43303">
        <ele>1340</ele>
        <time>2022-06-15T15:06:20+02:00</time>
      </trkpt>
      <trkpt lat="44.84439" lon="3.43293">
        <ele>1341</ele>
        <time>2022-06-15T15:06:20+02:00</time>
      </trkpt>
      <trkpt lat="44.84461" lon="3.43281">
        <ele>1341</ele>
        <time>2022-06-15T15:06:20+02:00</time>
      </trkpt>
      <trkpt lat="44.84482" lon="3.4327">
        <ele>1341</ele>
        <time>2022-06-15T15:06:20+02:00</time>
      </trkpt>
      <trkpt lat="44.84506" lon="3.43268">
        <ele>1342</ele>
        <time>2022-06-15T15:06:20+02:00</time>
      </trkpt>
      <trkpt lat="44.84529" lon="3.43267">
        <ele>1342</ele>
        <time>2022-06-15T15:06:20+02:00</time>
      </trkpt>
      <trkpt lat="44.84551" lon="3.43271">
        <ele>1343</ele>
        <time>2022-06-15T15:06:20+02:00</time>
      </trkpt>
      <trkpt lat="44.84574" lon="3.43273">
        <ele>1344</ele>
        <time>2022-06-15T15:06:20+02:00</time>
      </trkpt>
      <trkpt lat="44.84593" lon="3.43291">
        <ele>1347</ele>
        <time>2022-06-15T15:06:20+02:00</time>
      </trkpt>
      <trkpt lat="44.84616" lon="3.43301">
        <ele>1350</ele>
        <time>2022-06-15T15:06:20+02:00</time>
      </trkpt>
      <trkpt lat="44.84622" lon="3.43332">
        <ele>1355</ele>
        <time>2022-06-15T15:06:20+02:00</time>
      </trkpt>
      <trkpt lat="44.84639" lon="3.43354">
        <ele>1359</ele>
        <time>2022-06-15T15:06:20+02:00</time>
      </trkpt>
      <trkpt lat="44.84655" lon="3.43376">
        <ele>1362</ele>
        <time>2022-06-15T15:06:20+02:00</time>
      </trkpt>
      <trkpt lat="44.84659" lon="3.43408">
        <ele>1366</ele>
        <time>2022-06-15T15:06:20+02:00</time>
      </trkpt>
      <trkpt lat="44.84663" lon="3.4344">
        <ele>1369</ele>
        <time>2022-06-15T15:06:20+02:00</time>
      </trkpt>
      <trkpt lat="44.8467" lon="3.4347">
        <ele>1372</ele>
        <time>2022-06-15T15:06:20+02:00</time>
      </trkpt>
      <trkpt lat="44.84673" lon="3.43501">
        <ele>1375</ele>
        <time>2022-06-15T15:06:20+02:00</time>
      </trkpt>
      <trkpt lat="44.84683" lon="3.4353">
        <ele>1378</ele>
        <time>2022-06-15T15:06:20+02:00</time>
      </trkpt>
      <trkpt lat="44.84698" lon="3.43555">
        <ele>1381</ele>
        <time>2022-06-15T15:06:20+02:00</time>
      </trkpt>
      <trkpt lat="44.84715" lon="3.43575">
        <ele>1383</ele>
        <time>2022-06-15T15:06:20+02:00</time>
      </trkpt>
      <trkpt lat="44.84735" lon="3.43593">
        <ele>1384</ele>
        <time>2022-06-15T15:06:20+02:00</time>
      </trkpt>
      <trkpt lat="44.8475" lon="3.43617">
        <ele>1386</ele>
        <time>2022-06-15T15:06:20+02:00</time>
      </trkpt>
      <trkpt lat="44.84745" lon="3.43649">
        <ele>1389</ele>
        <time>2022-06-15T15:06:20+02:00</time>
      </trkpt>
      <trkpt lat="44.84753" lon="3.43679">
        <ele>1391</ele>
        <time>2022-06-15T15:06:20+02:00</time>
      </trkpt>
      <trkpt lat="44.8477" lon="3.43701">
        <ele>1394</ele>
        <time>2022-06-15T15:06:20+02:00</time>
      </trkpt>
      <trkpt lat="44.84778" lon="3.4373">
        <ele>1396</ele>
        <time>2022-06-15T15:06:20+02:00</time>
      </trkpt>
      <trkpt lat="44.848" lon="3.43741">
        <ele>1398</ele>
        <time>2022-06-15T15:06:20+02:00</time>
      </trkpt>
      <trkpt lat="44.84822" lon="3.4374">
        <ele>1400</ele>
        <time>2022-06-15T15:06:20+02:00</time>
      </trkpt>
      <trkpt lat="44.84846" lon="3.43743">
        <ele>1401</ele>
        <time>2022-06-15T15:06:20+02:00</time>
      </trkpt>
      <trkpt lat="44.84868" lon="3.43749">
        <ele>1401</ele>
        <time>2022-06-15T15:06:20+02:00</time>
      </trkpt>
      <trkpt lat="44.84891" lon="3.43756">
        <ele>1401</ele>
        <time>2022-06-15T15:06:20+02:00</time>
      </trkpt>
      <trkpt lat="44.84915" lon="3.43758">
        <ele>1401</ele>
        <time>2022-06-15T15:06:20+02:00</time>
      </trkpt>
      <trkpt lat="44.84934" lon="3.43733">
        <ele>1401</ele>
        <time>2022-06-15T15:06:20+02:00</time>
      </trkpt>
      <trkpt lat="44.84948" lon="3.43709">
        <ele>1401</ele>
        <time>2022-06-15T15:06:20+02:00</time>
      </trkpt>
      <trkpt lat="44.84963" lon="3.43684">
        <ele>1402</ele>
        <time>2022-06-15T15:06:20+02:00</time>
      </trkpt>
      <trkpt lat="44.84976" lon="3.43658">
        <ele>1402</ele>
        <time>2022-06-15T15:06:20+02:00</time>
      </trkpt>
      <trkpt lat="44.84978" lon="3.43625">
        <ele>1401</ele>
        <time>2022-06-15T15:06:20+02:00</time>
      </trkpt>
      <trkpt lat="44.84965" lon="3.43599">
        <ele>1400</ele>
        <time>2022-06-15T15:06:20+02:00</time>
      </trkpt>
      <trkpt lat="44.84952" lon="3.43572">
        <ele>1398</ele>
        <time>2022-06-15T15:06:20+02:00</time>
      </trkpt>
      <trkpt lat="44.8494" lon="3.43546">
        <ele>1396</ele>
        <time>2022-06-15T15:06:20+02:00</time>
      </trkpt>
      <trkpt lat="44.8493" lon="3.43517">
        <ele>1393</ele>
        <time>2022-06-15T15:06:20+02:00</time>
      </trkpt>
      <trkpt lat="44.84921" lon="3.43486">
        <ele>1389</ele>
        <time>2022-06-15T15:06:20+02:00</time>
      </trkpt>
      <trkpt lat="44.84908" lon="3.43459">
        <ele>1386</ele>
        <time>2022-06-15T15:06:20+02:00</time>
      </trkpt>
      <trkpt lat="44.84892" lon="3.43436">
        <ele>1382</ele>
        <time>2022-06-15T15:06:20+02:00</time>
      </trkpt>
      <trkpt lat="44.84879" lon="3.43408">
        <ele>1378</ele>
        <time>2022-06-15T15:06:20+02:00</time>
      </trkpt>
      <trkpt lat="44.84868" lon="3.43381">
        <ele>1373</ele>
        <time>2022-06-15T15:06:20+02:00</time>
      </trkpt>
      <trkpt lat="44.84853" lon="3.43355">
        <ele>1369</ele>
        <time>2022-06-15T15:06:20+02:00</time>
      </trkpt>
      <trkpt lat="44.84838" lon="3.43332">
        <ele>1365</ele>
        <time>2022-06-15T15:06:20+02:00</time>
      </trkpt>
      <trkpt lat="44.84821" lon="3.43311">
        <ele>1362</ele>
        <time>2022-06-15T15:06:20+02:00</time>
      </trkpt>
      <trkpt lat="44.84803" lon="3.43289">
        <ele>1359</ele>
        <time>2022-06-15T15:06:20+02:00</time>
      </trkpt>
      <trkpt lat="44.84782" lon="3.43277">
        <ele>1358</ele>
        <time>2022-06-15T15:06:20+02:00</time>
      </trkpt>
      <trkpt lat="44.84759" lon="3.43275">
        <ele>1358</ele>
        <time>2022-06-15T15:06:20+02:00</time>
      </trkpt>
      <trkpt lat="44.84735" lon="3.43278">
        <ele>1357</ele>
        <time>2022-06-15T15:06:20+02:00</time>
      </trkpt>
      <trkpt lat="44.84712" lon="3.43283">
        <ele>1356</ele>
        <time>2022-06-15T15:06:20+02:00</time>
      </trkpt>
      <trkpt lat="44.84691" lon="3.43296">
        <ele>1356</ele>
        <time>2022-06-15T15:06:20+02:00</time>
      </trkpt>
      <trkpt lat="44.84669" lon="3.4331">
        <ele>1356</ele>
        <time>2022-06-15T15:06:20+02:00</time>
      </trkpt>
      <trkpt lat="44.84647" lon="3.4331">
        <ele>1354</ele>
        <time>2022-06-15T15:06:20+02:00</time>
      </trkpt>
      <trkpt lat="44.84625" lon="3.43302">
        <ele>1351</ele>
        <time>2022-06-15T15:06:20+02:00</time>
      </trkpt>
      <trkpt lat="44.84603" lon="3.43291">
        <ele>1348</ele>
        <time>2022-06-15T15:06:20+02:00</time>
      </trkpt>
      <trkpt lat="44.84584" lon="3.43274">
        <ele>1344</ele>
        <time>2022-06-15T15:06:20+02:00</time>
      </trkpt>
      <trkpt lat="44.84561" lon="3.43268">
        <ele>1343</ele>
        <time>2022-06-15T15:06:20+02:00</time>
      </trkpt>
      <trkpt lat="44.84539" lon="3.43267">
        <ele>1342</ele>
        <time>2022-06-15T15:06:20+02:00</time>
      </trkpt>
      <trkpt lat="44.84516" lon="3.43272">
        <ele>1342</ele>
        <time>2022-06-15T15:06:20+02:00</time>
      </trkpt>
      <trkpt lat="44.84493" lon="3.43272">
        <ele>1342</ele>
        <time>2022-06-15T15:06:20+02:00</time>
      </trkpt>
      <trkpt lat="44.84476" lon="3.4325">
        <ele>1340</ele>
        <time>2022-06-15T15:06:20+02:00</time>
      </trkpt>
      <trkpt lat="44.84469" lon="3.43219">
        <ele>1338</ele>
        <time>2022-06-15T15:06:20+02:00</time>
      </trkpt>
      <trkpt lat="44.84475" lon="3.43188">
        <ele>1335</ele>
        <time>2022-06-15T15:06:20+02:00</time>
      </trkpt>
      <trkpt lat="44.84483" lon="3.43158">
        <ele>1333</ele>
        <time>2022-06-15T15:06:20+02:00</time>
      </trkpt>
      <trkpt lat="44.84486" lon="3.43125">
        <ele>1331</ele>
        <time>2022-06-15T15:06:20+02:00</time>
      </trkpt>
      <trkpt lat="44.84485" lon="3.43093">
        <ele>1329</ele>
        <time>2022-06-15T15:06:20+02:00</time>
      </trkpt>
      <trkpt lat="44.8448" lon="3.43061">
        <ele>1326</ele>
        <time>2022-06-15T15:06:20+02:00</time>
      </trkpt>
      <trkpt lat="44.84464" lon="3.43037">
        <ele>1324</ele>
        <time>2022-06-15T15:06:20+02:00</time>
      </trkpt>
      <trkpt lat="44.84442" lon="3.43028">
        <ele>1322</ele>
        <time>2022-06-15T15:06:20+02:00</time>
      </trkpt>
      <trkpt lat="44.8442" lon="3.43037">
        <ele>1323</ele>
        <time>2022-06-15T15:06:20+02:00</time>
      </trkpt>
      <trkpt lat="44.84397" lon="3.43042">
        <ele>1323</ele>
        <time>2022-06-15T15:06:20+02:00</time>
      </trkpt>
      <trkpt lat="44.84373" lon="3.43034">
        <ele>1322</ele>
        <time>2022-06-15T15:06:20+02:00</time>
      </trkpt>
      <trkpt lat="44.84352" lon="3.43046">
        <ele>1323</ele>
        <time>2022-06-15T15:06:20+02:00</time>
      </trkpt>
      <trkpt lat="44.84331" lon="3.4306">
        <ele>1324</ele>
        <time>2022-06-15T15:06:20+02:00</time>
      </trkpt>
      <trkpt lat="44.84311" lon="3.43074">
        <ele>1325</ele>
        <time>2022-06-15T15:06:20+02:00</time>
      </trkpt>
      <trkpt lat="44.84288" lon="3.43081">
        <ele>1324</ele>
        <time>2022-06-15T15:06:20+02:00</time>
      </trkpt>
      <trkpt lat="44.8427" lon="3.431">
        <ele>1325</ele>
        <time>2022-06-15T15:06:20+02:00</time>
      </trkpt>
      <trkpt lat="44.84251" lon="3.43118">
        <ele>1326</ele>
        <time>2022-06-15T15:06:20+02:00</time>
      </trkpt>
      <trkpt lat="44.84233" lon="3.43139">
        <ele>1328</ele>
        <time>2022-06-15T15:06:20+02:00</time>
      </trkpt>
      <trkpt lat="44.84211" lon="3.43147">
        <ele>1328</ele>
        <time>2022-06-15T15:06:20+02:00</time>
      </trkpt>
      <trkpt lat="44.84189" lon="3.43157">
        <ele>1329</ele>
        <time>2022-06-15T15:06:20+02:00</time>
      </trkpt>
      <trkpt lat="44.84166" lon="3.43161">
        <ele>1328</ele>
        <time>2022-06-15T15:06:20+02:00</time>
      </trkpt>
      <trkpt lat="44.84143" lon="3.4316">
        <ele>1327</ele>
        <time>2022-06-15T15:06:20+02:00</time>
      </trkpt>
      <trkpt lat="44.8412" lon="3.43157">
        <ele>1325</ele>
        <time>2022-06-15T15:06:20+02:00</time>
      </trkpt>
      <trkpt lat="44.84096" lon="3.43151">
        <ele>1323</ele>
        <time>2022-06-15T15:06:20+02:00</time>
      </trkpt>
      <trkpt lat="44.84074" lon="3.43151">
        <ele>1321</ele>
        <time>2022-06-15T15:06:20+02:00</time>
      </trkpt>
      <trkpt lat="44.84052" lon="3.43145">
        <ele>1318</ele>
        <time>2022-06-15T15:06:20+02:00</time>
      </trkpt>
      <trkpt lat="44.84029" lon="3.4315">
        <ele>1315</ele>
        <time>2022-06-15T15:06:20+02:00</time>
      </trkpt>
      <trkpt lat="44.84006" lon="3.43155">
        <ele>1313</ele>
        <time>2022-06-15T15:06:20+02:00</time>
      </trkpt>
      <trkpt lat="44.83984" lon="3.43147">
        <ele>1311</ele>
        <time>2022-06-15T15:06:20+02:00</time>
      </trkpt>
      <trkpt lat="44.83961" lon="3.43144">
        <ele>1310</ele>
        <time>2022-06-15T15:06:20+02:00</time>
      </trkpt>
      <trkpt lat="44.83938" lon="3.43145">
        <ele>1308</ele>
        <time>2022-06-15T15:06:20+02:00</time>
      </trkpt>
      <trkpt lat="44.83925" lon="3.43118">
        <ele>1307</ele>
        <time>2022-06-15T15:06:20+02:00</time>
      </trkpt>
      <trkpt lat="44.83916" lon="3.43088">
        <ele>1305</ele>
        <time>2022-06-15T15:06:20+02:00</time>
      </trkpt>
      <trkpt lat="44.83901" lon="3.43064">
        <ele>1303</ele>
        <time>2022-06-15T15:06:20+02:00</time>
      </trkpt>
      <trkpt lat="44.83884" lon="3.43041">
        <ele>1300</ele>
        <time>2022-06-15T15:06:20+02:00</time>
      </trkpt>
      <trkpt lat="44.83865" lon="3.43022">
        <ele>1297</ele>
        <time>2022-06-15T15:06:20+02:00</time>
      </trkpt>
      <trkpt lat="44.83869" lon="3.4299">
        <ele>1295</ele>
        <time>2022-06-15T15:06:20+02:00</time>
      </trkpt>
      <trkpt lat="44.83881" lon="3.42962">
        <ele>1293</ele>
        <time>2022-06-15T15:06:20+02:00</time>
      </trkpt>
      <trkpt lat="44.83877" lon="3.4293">
        <ele>1289</ele>
        <time>2022-06-15T15:06:20+02:00</time>
      </trkpt>
      <trkpt lat="44.83854" lon="3.42927">
        <ele>1286</ele>
        <time>2022-06-15T15:06:20+02:00</time>
      </trkpt>
      <trkpt lat="44.83834" lon="3.42911">
        <ele>1281</ele>
        <time>2022-06-15T15:06:20+02:00</time>
      </trkpt>
      <trkpt lat="44.83835" lon="3.42879">
        <ele>1277</ele>
        <time>2022-06-15T15:06:20+02:00</time>
      </trkpt>
      <trkpt lat="44.83846" lon="3.42851">
        <ele>1275</ele>
        <time>2022-06-15T15:06:20+02:00</time>
      </trkpt>
      <trkpt lat="44.83861" lon="3.42827">
        <ele>1273</ele>
        <time>2022-06-15T15:06:20+02:00</time>
      </trkpt>
      <trkpt lat="44.83879" lon="3.42805">
        <ele>1271</ele>
        <time>2022-06-15T15:06:20+02:00</time>
      </trkpt>
      <trkpt lat="44.83892" lon="3.42778">
        <ele>1268</ele>
        <time>2022-06-15T15:06:20+02:00</time>
      </trkpt>
      <trkpt lat="44.83902" lon="3.4275">
        <ele>1264</ele>
        <time>2022-06-15T15:06:20+02:00</time>
      </trkpt>
      <trkpt lat="44.83907" lon="3.42718">
        <ele>1260</ele>
        <time>2022-06-15T15:06:20+02:00</time>
      </trkpt>
      <trkpt lat="44.83885" lon="3.42708">
        <ele>1257</ele>
        <time>2022-06-15T15:06:20+02:00</time>
      </trkpt>
      <trkpt lat="44.83862" lon="3.42715">
        <ele>1256</ele>
        <time>2022-06-15T15:06:20+02:00</time>
      </trkpt>
      <trkpt lat="44.8384" lon="3.42722">
        <ele>1255</ele>
        <time>2022-06-15T15:06:20+02:00</time>
      </trkpt>
      <trkpt lat="44.83817" lon="3.42725">
        <ele>1253</ele>
        <time>2022-06-15T15:06:20+02:00</time>
      </trkpt>
      <trkpt lat="44.83794" lon="3.42728">
        <ele>1250</ele>
        <time>2022-06-15T15:06:20+02:00</time>
      </trkpt>
      <trkpt lat="44.83827" lon="3.42727">
        <ele>1254</ele>
        <time>2022-06-15T15:06:20+02:00</time>
      </trkpt>
      <trkpt lat="44.83747" lon="3.42736">
        <ele>1244</ele>
        <time>2022-06-15T15:06:20+02:00</time>
      </trkpt>
      <trkpt lat="44.83745" lon="3.42709">
        <ele>1242</ele>
        <time>2022-06-15T15:06:20+02:00</time>
      </trkpt>
      <trkpt lat="44.83731" lon="3.42707">
        <ele>1240</ele>
        <time>2022-06-15T15:06:20+02:00</time>
      </trkpt>
      <trkpt lat="44.83721" lon="3.42717">
        <ele>1240</ele>
        <time>2022-06-15T15:06:20+02:00</time>
      </trkpt>
    </trkseg>
  </trk>
</gpx>